GW4866 Weather Reports


time (UTC)temp
F
wind
direction
speed
knots
gust
knots
rain 1hr
in
rain 24hr
in
rain mn
in
humidity
%
barometer
mb
20260906215004 88 32 1.7 7.8 0.00 0.00 0.00 32 1019.9
20260906214004 88 87 2.6 9.6 0.00 0.00 0.00 31 1020.1
20260906213503 88 76 2.6 9.6 0.00 0.00 0.00 31 1020.4
20260906213004 88 93 2.6 8.7 0.00 0.00 0.00 32 1020.2
20260906212503 88 52 1.7 7.0 0.00 0.00 0.00 32 1020.3
20260906212004 88 62 1.7 4.3 0.00 0.00 0.00 32 1020.2
20260906211004 87 330 1.7 7.8 0.00 0.00 0.00 32 1020.2
20260906210503 88 55 2.6 7.0 0.00 0.00 0.00 31 1020.4
20260906210004 87 321 2.6 7.0 0.00 0.00 0.00 33 1020.3
20260906205503 88 284 1.7 7.0 0.00 0.00 0.00 33 1020.3
20260906204503 88 73 2.6 8.7 0.00 0.00 0.00 35 1020.9
20260906204004 88 85 2.6 5.2 0.00 0.00 0.00 35 1021.0
20260906203003 88 73 2.6 7.0 0.00 0.00 0.00 34 1021.1
20260906202003 88 90 2.6 7.8 0.00 0.00 0.00 33 1020.9
20260906201504 88 90 1.7 6.1 0.00 0.00 0.00 34 1021.2
20260906201003 87 37 1.7 7.8 0.00 0.00 0.00 34 1021.2
20260906200504 86 309 2.6 7.8 0.00 0.00 0.00 35 1020.9
20260906200003 87 311 2.6 7.0 0.00 0.00 0.00 33 1021.0
20260906195504 88 323 1.7 5.2 0.00 0.00 0.00 33 1021.0
20260906195003 88 356 2.6 6.1 0.00 0.00 0.00 32 1020.9
20260906194504 89 85 2.6 6.1 0.00 0.00 0.00 33 1021.3
20260906194003 89 93 1.7 5.2 0.00 0.00 0.00 33 1021.6
20260906193503 89 81 1.7 7.8 0.00 0.00 0.00 32 1021.4
20260906193003 88 58 1.7 7.8 0.00 0.00 0.00 33 1021.5
20260906192003 87 19 1.7 5.2 0.00 0.00 0.00 32 1021.5
20260906191003 86 320 2.6 6.1 0.00 0.00 0.00 33 1021.6
20260906190504 86 319 2.6 6.1 0.00 0.00 0.00 33 1021.8
20260906190003 86 322 1.7 5.2 0.00 0.00 0.00 32 1021.9
20260906185504 86 331 1.7 4.3 0.00 0.00 0.00 34 1021.8
20260906185003 86 306 1.7 5.2 0.00 0.00 0.00 34 1022.0
20260906184504 86 314 1.7 5.2 0.00 0.00 0.00 33 1022.2
20260906184003 86 340 1.7 3.5 0.00 0.00 0.00 32 1022.4
20260906183004 85 318 1.7 4.3 0.00 0.00 0.00 34 1022.6
20260906182503 84 311 1.7 4.3 0.00 0.00 0.00 35 1022.6
20260906182004 85 358 0.9 4.3 0.00 0.00 0.00 33 1022.8
20260906181503 85 348 0.9 4.3 0.00 0.00 0.00 33 1023.0
20260906181004 85 310 0.9 4.3 0.00 0.00 0.00 33 1023.1
20260906180503 84 312 1.7 3.5 0.00 0.00 0.00 33 1023.0
20260906180004 84 318 0.9 3.5 0.00 0.00 0.00 34 1023.3
20260906175503 85 36 0.9 3.5 0.00 0.00 0.00 33 1023.3
20260906175004 85 94 0.9 2.6 0.00 0.00 0.00 35 1023.3
20260906174003 83 321 0.9 3.5 0.00 0.00 0.00 34 1023.4
20260906173504 83 310 0.9 3.5 0.00 0.00 0.00 35 1023.6
20260906173003 83 348 1.7 3.5 0.00 0.00 0.00 35 1023.7
20260906172503 83 76 1.7 4.3 0.00 0.00 0.00 34 1023.6
20260906171503 82 72 1.7 4.3 0.00 0.00 0.00 36 1024.0
20260906171004 83 10 0.9 3.5 0.00 0.00 0.00 35 1023.8
20260906170504 82 319 0.9 2.6 0.00 0.00 0.00 35 1023.8
20260906170003 82 303 1.7 4.3 0.00 0.00 0.00 34 1023.8
20260906165503 82 297 1.7 4.3 0.00 0.00 0.00 35 1023.9
20260906165003 82 321 0.9 3.5 0.00 0.00 0.00 35 1023.9
20260906164504 82 345 0.9 3.5 0.00 0.00 0.00 36 1023.9
20260906164003 81 45 0.9 3.5 0.00 0.00 0.00 35 1023.9
20260906163503 81 75 0.9 5.2 0.00 0.00 0.00 36 1023.5
20260906163003 80 78 0.9 5.2 0.00 0.00 0.00 38 1023.9
20260906162503 80 78 1.7 5.2 0.00 0.00 0.00 37 1023.5
20260906162004 80 72 1.7 6.1 0.00 0.00 0.00 38 1023.6
20260906161003 80 62 0.9 6.1 0.00 0.00 0.00 37 1023.6
20260906160504 80 65 0.9 2.6 0.00 0.00 0.00 37 1023.6
20260906160005 79 64 0.9 2.6 0.00 0.00 0.00 37 1023.6
20260906155504 79 70 0.9 2.6 0.00 0.00 0.00 39 1023.8
20260906155005 78 81 0.9 2.6 0.00 0.00 0.00 37 1023.5
20260906154505 78 69 0.9 2.6 0.00 0.00 0.00 37 1023.5
20260906153004 76 179 0.0 1.7 0.00 0.00 0.00 40 1023.5
20260906152504 76 192 0.0 2.6 0.00 0.00 0.00 40 1023.5
20260906152005 75 205 0.9 3.5 0.00 0.00 0.00 41 1023.5
20260906151504 74 181 0.9 4.3 0.00 0.00 0.00 42 1023.5
20260906150004 72 190 1.7 4.3 0.00 0.00 0.00 44 1023.6
20260906145505 72 184 1.7 4.3 0.00 0.00 0.00 45 1023.5
20260906145005 71 174 1.7 4.3 0.00 0.00 0.00 47 1023.5
20260906144504 71 168 1.7 3.5 0.00 0.00 0.00 47 1023.7
20260906144004 70 184 0.9 3.5 0.00 0.00 0.00 48 1023.6
20260906143504 69 215 0.9 3.5 0.00 0.00 0.00 49 1023.5
20260906143004 69 210 0.9 3.5 0.00 0.00 0.00 50 1023.5
20260906142005 68 211 0.9 3.5 0.00 0.00 0.00 51 1023.5
20260906141505 68 199 0.9 3.5 0.00 0.00 0.00 52 1023.6
20260906141004 67 206 1.7 3.5 0.00 0.00 0.00 52 1023.7
20260906140004 66 210 1.7 4.3 0.00 0.00 0.00 53 1023.5
20260906135504 66 207 0.9 4.3 0.00 0.00 0.00 54 1023.5
20260906135004 65 188 1.7 4.3 0.00 0.00 0.00 54 1023.0
20260906134505 65 190 1.7 4.3 0.00 0.00 0.00 54 1022.9
20260906134004 64 191 1.7 2.6 0.00 0.00 0.00 55 1023.0
20260906133505 64 200 0.9 3.5 0.00 0.00 0.00 55 1022.9
20260906133004 63 218 0.9 3.5 0.00 0.00 0.00 56 1022.9
20260906132504 63 223 0.9 4.3 0.00 0.00 0.00 56 1022.8
20260906132005 63 210 0.0 4.3 0.00 0.00 0.00 57 1022.8
20260906131005 62 209 0.0 0.9 0.00 0.00 0.00 57 1022.7
20260906125504 63 208 0.9 2.6 0.00 0.00 0.00 55 1022.7
20260906125005 63 221 0.9 3.5 0.00 0.00 0.00 55 1022.7
20260906124504 63 213 0.9 3.5 0.00 0.00 0.00 54 1022.7
20260906124005 64 191 1.7 5.2 0.00 0.00 0.00 53 1022.6
20260906123504 64 178 1.7 5.2 0.00 0.00 0.00 53 1022.6
20260906123005 64 169 1.7 4.3 0.00 0.00 0.00 53 1022.5
20260906122504 64 169 1.7 5.2 0.00 0.00 0.00 52 1022.5
20260906122004 64 182 1.7 5.2 0.00 0.00 0.00 52 1022.5
20260906121505 64 186 1.7 4.3 0.00 0.00 0.00 52 1022.5
20260906121004 64 192 1.7 4.3 0.00 0.00 0.00 52 1022.4
20260906120504 64 195 0.9 2.6 0.00 0.00 0.00 53 1022.5
20260906120005 64 206 0.9 1.7 0.00 0.00 0.00 52 1022.5
20260906115508 64 214 0.9 1.7 0.00 0.00 0.00 53 1022.4
20260906115004 64 212 0.9 2.6 0.00 0.00 0.00 54 1022.3
20260906114505 64 214 0.9 2.6 0.00 0.00 0.00 53 1022.3
20260906114005 64 220 0.9 2.6 0.00 0.00 0.00 53 1022.3
20260906113505 64 215 0.9 3.5 0.00 0.00 0.00 53 1022.3
20260906113004 63 213 0.9 3.5 0.00 0.00 0.00 53 1022.2
20260906112504 63 215 0.9 2.6 0.00 0.00 0.00 53 1022.1
20260906112004 63 218 0.9 2.6 0.00 0.00 0.00 54 1022.1
20260906111504 63 217 0.9 2.6 0.00 0.00 0.00 54 1022.0
20260906110505 63 219 0.0 0.9 0.00 0.00 0.00 56 1021.9
20260906110004 64 198 0.9 2.6 0.00 0.00 0.00 53 1021.9
20260906105505 64 185 0.9 2.6 0.00 0.00 0.00 53 1021.9
20260906105004 64 188 0.9 1.7 0.00 0.00 0.00 53 1021.9
20260906104505 64 209 0.9 3.5 0.00 0.00 0.00 53 1021.9
20260906104004 64 205 0.9 3.5 0.00 0.00 0.00 54 1021.9
20260906103505 64 199 0.9 1.7 0.00 0.00 0.00 54 1022.0
20260906103004 64 202 0.9 2.6 0.00 0.00 0.00 54 1021.9
20260906102505 64 187 0.9 2.6 0.00 0.00 0.00 55 1021.9
20260906102004 64 179 0.9 2.6 0.00 0.00 0.00 55 1022.0
20260906101504 64 194 0.0 2.6 0.00 0.00 0.00 56 1022.1
20260906101005 64 178 0.0 2.6 0.00 0.00 0.00 56 1022.2
20260906100504 64 193 0.9 2.6 0.00 0.00 0.00 56 1022.2
20260906100005 64 204 0.9 2.6 0.00 0.00 0.00 56 1022.3
20260906095504 65 187 0.9 3.5 0.00 0.00 0.00 56 1022.4
20260906095005 65 175 1.7 3.5 0.00 0.00 0.00 55 1022.4
20260906094504 64 171 1.7 3.5 0.00 0.00 0.00 56 1022.3
20260906093504 64 178 1.7 2.6 0.00 0.00 0.00 58 1022.3
20260906093005 64 198 0.9 2.6 0.00 0.00 0.00 59 1022.3
20260906092504 64 215 0.9 2.6 0.00 0.00 0.00 59 1022.4
20260906092005 64 214 0.9 2.6 0.00 0.00 0.00 58 1022.3
20260906091504 65 208 0.9 2.6 0.00 0.00 0.00 58 1022.3
20260906091005 65 187 0.0 1.7 0.00 0.00 0.00 58 1022.2
20260906090504 65 189 0.0 1.7 0.00 0.00 0.00 59 1022.2
20260906090004 65 171 0.0 1.7 0.00 0.00 0.00 59 1022.3
20260906085504 65 173 0.0 1.7 0.00 0.00 0.00 59 1022.2
20260906085004 65 173 0.0 1.7 0.00 0.00 0.00 60 1022.1
20260906084505 65 166 0.0 1.7 0.00 0.00 0.00 60 1022.1
20260906084004 65 189 0.0 1.7 0.00 0.00 0.00 60 1022.1
20260906082004 65 193 0.0 2.6 0.00 0.00 0.00 61 1022.1
20260906081505 65 202 0.0 2.6 0.00 0.00 0.00 62 1022.1
20260906081004 65 222 0.9 2.6 0.00 0.00 0.00 63 1022.2
20260906080505 65 215 0.9 3.5 0.00 0.00 0.00 65 1022.4
20260906080004 64 195 0.9 3.5 0.00 0.00 0.00 68 1022.4
20260906075505 64 186 0.9 2.6 0.00 0.00 0.00 69 1022.5
20260906075004 64 201 0.9 2.6 0.00 0.00 0.00 69 1022.6
20260906074504 64 222 0.9 2.6 0.00 0.00 0.00 69 1022.8
20260906074004 64 226 0.9 1.7 0.00 0.00 0.00 70 1022.6
20260906073504 63 222 0.9 1.7 0.00 0.00 0.00 70 1022.7
20260906072504 63 217 0.0 0.9 0.00 0.00 0.00 70 1022.7
20260906072005 63 218 0.0 0.9 0.00 0.00 0.00 70 1022.8
20260906071504 63 218 0.0 0.9 0.00 0.00 0.00 70 1022.7
20260906071005 64 218 0.0 0.9 0.00 0.00 0.00 70 1022.7
20260906070505 64 210 0.0 2.6 0.00 0.00 0.00 69 1022.7
20260906070004 64 206 0.0 2.6 0.00 0.00 0.00 69 1022.9
20260906065504 64 186 0.0 1.7 0.00 0.00 0.00 69 1023.0
20260906065004 64 0 0.0 0.0 0.00 0.00 0.00 69 1023.0
20260906064004 65 0 0.0 0.0 0.00 0.00 0.00 69 1023.0
20260906063505 65 320 0.0 0.9 0.00 0.00 0.00 68 1022.9
20260906063004 65 325 0.0 1.7 0.00 0.00 0.00 68 1022.7
20260906062504 65 327 0.0 1.7 0.00 0.00 0.00 68 1022.7
20260906062005 65 328 0.0 0.9 0.00 0.00 0.00 68 1022.7
20260906061504 65 328 0.0 0.9 0.00 0.00 0.00 68 1022.7
20260906061004 65 328 0.0 0.9 0.00 0.00 0.00 68 1022.7
20260906060505 65 328 0.0 0.9 0.00 0.00 0.00 68 1022.6
20260906055004 65 327 0.0 0.9 0.00 0.00 0.00 68 1022.5
20260906054504 65 342 0.0 1.7 0.00 0.00 0.00 68 1022.4
20260906054004 65 356 0.0 1.7 0.00 0.00 0.00 69 1022.3
20260906053504 65 38 0.0 1.7 0.00 0.00 0.00 69 1022.3
20260906053005 65 45 0.0 1.7 0.00 0.00 0.00 70 1022.3
20260906052504 65 45 0.0 0.9 0.00 0.00 0.00 70 1022.3
20260906052005 65 44 0.0 0.9 0.00 0.00 0.00 70 1022.3
20260906051504 65 45 0.0 0.9 0.00 0.00 0.00 70 1022.4
20260906051004 65 44 0.0 0.9 0.00 0.00 0.00 70 1022.4
20260906050504 65 44 0.0 0.9 0.00 0.00 0.00 70 1022.4
20260906045504 65 45 0.0 0.9 0.00 0.00 0.00 70 1022.3
20260906045005 65 45 0.0 0.9 0.00 0.00 0.00 71 1022.4
20260906044504 65 45 0.0 0.9 0.00 0.00 0.00 70 1022.5
20260906044005 66 45 0.0 0.9 0.00 0.00 0.00 70 1022.8
20260906043504 66 0 0.0 0.0 0.00 0.00 0.00 69 1022.5
20260906042004 67 45 0.0 0.9 0.00 0.00 0.00 68 1022.7
20260906041505 67 45 0.0 0.9 0.00 0.00 0.00 67 1022.5
20260906041004 67 0 0.0 0.0 0.00 0.00 0.00 67 1022.8
20260906040504 68 45 0.0 0.9 0.00 0.00 0.00 66 1022.8
20260906040004 68 44 0.0 2.6 0.00 0.00 0.00 65 1022.8
20260906035005 68 122 0.0 0.9 0.00 0.00 0.00 65 1022.9
20260906034504 69 141 0.0 0.9 0.00 0.00 0.00 64 1022.8
20260906034005 69 288 0.0 1.7 0.00 0.00 0.00 64 1022.8
20260906033504 69 314 0.0 1.7 0.00 0.00 0.00 63 1022.7
20260906032504 70 307 0.9 1.7 0.00 0.00 0.00 63 1022.6
20260906032005 70 286 0.0 1.7 0.00 0.00 0.00 63 1022.6
20260906031504 70 305 0.0 1.7 0.00 0.00 0.00 62 1022.3
20260906031004 70 319 0.0 1.7 0.00 0.00 0.00 62 1022.5
20260906030504 70 320 0.0 1.7 0.00 0.00 0.00 62 1022.4
20260906030004 71 311 0.9 4.3 0.00 0.00 0.00 62 1022.3
20260906025504 71 307 0.9 4.3 0.00 0.00 0.00 61 1022.2
20260906025004 71 314 0.9 4.3 0.00 0.00 0.00 61 1022.6
20260906024504 71 320 0.9 3.5 0.00 0.00 0.00 61 1022.6
20260906024004 72 317 0.9 3.5 0.00 0.00 0.00 60 1022.5
20260906023504 72 316 1.7 4.3 0.00 0.00 0.00 60 1022.6
20260906023005 72 319 1.7 7.0 0.00 0.00 0.00 59 1022.5
20260906022504 73 319 1.7 7.0 0.00 0.00 0.00 57 1022.6
20260906022004 73 314 0.9 3.5 0.00 0.00 0.00 57 1022.6
20260906021504 74 310 1.7 5.2 0.00 0.00 0.00 53 1022.1
20260906021004 74 275 1.7 6.1 0.00 0.00 0.00 49 1022.0
20260906020505 74 178 0.9 6.1 0.00 0.00 0.00 39 1021.3
20260906020004 74 170 0.9 1.7 0.00 0.00 0.00 36 1021.1
20260906015504 74 154 0.9 2.6 0.00 0.00 0.00 35 1021.0
20260906014504 74 150 0.9 2.6 0.00 0.00 0.00 35 1020.8
20260906013504 75 178 0.9 3.5 0.00 0.00 0.00 35 1020.9
20260906013005 75 178 0.9 1.7 0.00 0.00 0.00 35 1020.8
20260906012005 76 189 0.0 1.7 0.00 0.00 0.00 34 1020.8
20260906011504 76 197 0.0 1.7 0.00 0.00 0.00 33 1020.9
20260906011004 77 175 0.0 1.7 0.00 0.00 0.00 33 1020.8
20260906010504 77 142 0.0 2.6 0.00 0.00 0.00 33 1020.7
20260906010004 77 149 0.0 2.6 0.00 0.00 0.00 32 1020.8
20260906005004 78 195 0.9 2.6 0.00 0.00 0.00 32 1021.3
20260906004504 78 176 0.0 1.7 0.00 0.00 0.00 32 1021.4
20260906004004 78 183 0.0 1.7 0.00 0.00 0.00 32 1021.5
20260906003505 78 208 0.0 1.7 0.00 0.00 0.00 32 1021.5
20260906003004 79 220 0.0 1.7 0.00 0.00 0.00 32 1021.4
20260906002504 79 174 0.0 1.7 0.00 0.00 0.00 32 1021.4
20260906002004 80 113 0.0 1.7 0.00 0.00 0.00 32 1021.3
20260906001504 80 84 0.0 0.9 0.00 0.00 0.00 31 1021.3
20260906001005 81 157 0.0 0.9 0.00 0.00 0.00 30 1021.2
20260906000504 81 215 0.0 1.7 0.00 0.00 0.00 30 1021.3
20260906000004 81 220 0.0 1.7 0.00 0.00 0.00 29 1021.3
20260905235504 81 244 0.0 0.9 0.00 0.00 0.00 29 1021.2
20260905235005 81 246 0.0 0.9 0.00 0.00 0.00 29 1021.1
20260905234504 81 246 0.0 0.9 0.00 0.00 0.00 29 1021.1
20260905234004 81 218 0.0 1.7 0.00 0.00 0.00 29 1021.1
20260905233504 81 237 0.9 1.7 0.00 0.00 0.00 29 1021.2
20260905233004 82 256 0.9 1.7 0.00 0.00 0.00 28 1021.2
20260905232004 82 187 0.0 1.7 0.00 0.00 0.00 28 1021.0
20260905231505 82 167 0.9 1.7 0.00 0.00 0.00 28 1021.0
20260905231004 82 159 0.0 1.7 0.00 0.00 0.00 28 1021.1
20260905225504 84 154 0.0 0.9 0.00 0.00 0.00 26 1021.0
20260905225005 84 188 0.0 2.6 0.00 0.00 0.00 28 1021.2
20260905224504 84 215 0.0 2.6 0.00 0.00 0.00 27 1021.1
20260905224005 83 251 0.0 1.7 0.00 0.00 0.00 30 1021.2
20260905223504 81 240 0.0 1.7 0.00 0.00 0.00 30 1021.2
20260905223004 81 93 0.0 1.7 0.00 0.00 0.00 30 1021.3
20260905222505 81 90 0.9 2.6 0.00 0.00 0.00 31 1021.5
20260905222004 81 119 0.9 2.6 0.00 0.00 0.00 32 1021.7
20260905221504 82 198 0.0 1.7 0.00 0.00 0.00 30 1021.4
20260905221004 82 236 0.0 1.7 0.00 0.00 0.00 28 1021.4
20260905220505 82 236 0.0 1.7 0.00 0.00 0.00 29 1021.4
20260905220004 83 267 0.0 0.9 0.00 0.00 0.00 27 1021.3
20260905215505 82 297 0.9 2.6 0.00 0.00 0.00 31 1021.7